Погода в Дмитриевщине

Россия / Тамбовская область     52°44′25″N   42°01′06″E
темп.,
°C
ветер,
м/с
пор.,
м/с
влажн.,
%
обл.,
%
осадки,
мм/ч
давл.,
гПа
погр.,
м
9 мая, вс
вс900:00+13ю61193100 3.9 1006410
03:00+11ю4798100 4.1 1006262
06:00+11ююв4899100 3.6 1005285
09:00+10зюз6895100 8.1 1006480
12:00+8з4895100 3.6 1008485
15:00+9з3486100 7.1 1010533
18:00+5сз61094100 0.3 1013468
21:00+4сз5991100 0.3 1016593
10 мая, пн
пн1000:00+4ссз4897100 0.0 1016610
03:00+4ссз5997100 0.0 1017519
06:00+5ссз51096100 0.0 1018579
09:00+6с71296100 0.5 1018533
12:00+7с91696100 1.8 1018591
15:00+8ссв101894100 2.6 1018617
18:00+9ссв112292100 0.1 1017557
21:00+10ссв102091100 0.1 1018537
11 мая, вт
вт1100:00+10св81893100 0.0 1018514
03:00+10св81892100 0.0 1018467
06:00+11св71589100 0.0 1019494
09:00+9юв3996100 0.8 1022388
12:00+14вюв686531 0.3 10241171
15:00+16вюв68522 0.3 10241611
18:00+15юв4765100 0.0 1025388
21:00+11ююз1181100 0.0 102610
12 мая, ср
ср1200:00+10св359097 0.7 1026186
03:00+9св2490100 0.8 1025114
06:00+9св3694100 0.0 1025239
09:00+11св469595 0.0 1024367
12:00+12всв2798100 2.1 1023346
15:00+15в61190100 3.0 1022835
18:00+15вюв61285100 0.1 1022669
21:00+13вюв51188100 0.1 1022405
13 мая, чт
чт1300:00+13вюв41192100 0.0 1022337
03:00+12вюв389494 0.0 1021190
06:00+12в259229 0.0 1021164
09:00+17вюв457110 0.0 1020525
12:00+21вюв566230 0.0 10201152
15:00+21юв5763100 0.0 10191511
18:00+19вюв5107776 0.3 1019427
21:00+16вюв4119130 0.6 1019202